Helicity
344 268 327 379 437 466 361 427 525 512 421 411 427 321 307 277 251 262 257 198 180 167 162 148 142 136 136 134 139 137 136 130 118 119 107 92 90 115
649 686 553 352 313 317 347 392 452 512 464 456 436 364 338 314 254 257 232 201 184 165 159 151 146 144 144 141 133 125 121 116 109 105 108 105 108 126
415 512 407 629 415 425 388 418 415 449 410 485 455 325 386 336 305 295 270 239 206 158 149 139 135 138 134 125 123 121 122 127 116 107 103 90 87 101
299 371 356 320 407 444 455 368 374 384 440 383 421 412 380 341 319 292 252 237 214 167 149 129 135 130 130 122 117 117 104 103 117 113 124 135 133 126
213 296 299 408 398 329 297 315 340 347 377 365 436 440 460 374 365 321 284 269 237 185 155 137 114 110 112 100 83 86 81 82 95 108 128 143 144 143
300 421 399 332 338 265 282 304 275 321 357 378 391 404 387 386 357 359 337 283 259 213 165 135 112 95 87 85 76 80 82 85 92 108 124 146 153 150
320 351 434 454 377 289 274 247 256 299 303 344 360 371 364 372 283 300 292 323 267 204 196 153 143 128 102 78 93 93 115 134 152 161 150 156 166 151
288 310 392 407 409 398 378 286 238 263 274 326 312 265 243 242 266 277 294 311 287 196 194 162 133 122 91 107 88 94 112 121 127 133 126 137 153 155
216 219 233 292 371 401 344 334 348 330 311 354 366 298 277 239 263 265 248 256 218 169 157 146 168 151 137 124 77 83 89 96 109 111 105 111 137 149
166 177 191 196 202 234 292 330 363 381 377 373 360 373 385 393 370 322 282 274 261 208 194 183 169 167 166 177 102 93 82 92 99 91 99 98 95 104
172 155 152 160 141 140 184 210 229 248 264 228 187 177 174 169 210 278 302 307 270 232 204 199 202 176 193 211 187 103 95 98 110 115 114 103 99 106
154 147 155 116 87 110 160 180 199 201 209 222 246 256 173 138 113 176 228 244 242 227 217 222 190 187 161 120 126 158 161 121 116 130 104 105 153 192
168 156 153 149 170 78 72 148 153 143 138 181 203 213 227 230 222 218 219 226 231 232 212 183 194 205 220 214 187 149 160 163 170 167 146 154 152 174
177 152 159 162 174 182 192 211 139 68 131 148 171 192 201 206 202 190 186 208 213 187 177 161 215 195 202 192 181 160 167 174 164 167 160 118 106 105
206 152 110 95 107 137 165 175 169 177 180 181 169 189 186 187 200 219 217 199 185 179 152 163 166 166 190 187 188 162 131 161 157 158 172 169 163 176
150 169 195 211 227 241 204 185 210 225 232 219 199 194 202 196 175 149 156 157 170 179 158 162 165 171 186 187 182 184 192 201 176 163 149 154 165 166
98 129 127 116 129 158 178 192 207 201 207 217 212 212 188 182 179 180 194 227 196 174 184 182 187 172 181 170 203 196 186 197 179 158 154 160 167 185
88 136 111 115 142 156 162 150 150 152 153 163 169 161 183 189 184 154 155 157 186 207 211 195 192 208 225 216 167 217 207 175 153 141 152 186 219 169
54 133 106 154 127 108 123 146 170 168 137 160 166 173 177 190 189 209 204 201 196 163 147 145 171 183 196 173 136 98 171 170 215 202 199 197 161 132
76 91 120 99 166 148 123 141 141 156 157 159 169 176 182 189 198 196 189 194 205 211 205 206 205 198 195 183 188 172 144 253 288 240 212 180 141 101
97 98 82 78 110 145 131 123 142 149 156 177 173 163 149 158 154 148 139 118 114 168 180 179 160 113 163 212 234 199 138 103 127 169 143 130 132 108
71 53 66 93 101 123 121 109 122 138 154 180 166 161 148 130 113 109 109 116 121 117 124 122 119 139 171 175 176 167 165 133 124 125 115 102 130 156
69 77 90 83 101 105 103 112 125 130 117 130 151 166 167 167 152 154 150 139 132 121 110 124 148 170 174 170 152 138 132 120 99 91 41 16 19 28
Wind_Speed
61 54 59 61 53 50 49 48 52 62 68 58 53 47 34 29 36 34 33 30 30 28 28 29 29 30 31 33 35 37 40 42 44 45 46 45 46 48
52 45 56 53 56 52 50 55 55 56 65 57 54 43 40 41 40 39 37 36 36 35 35 35 34 35 35 38 40 41 41 44 46 48 50 51 51 52
61 60 62 57 57 54 53 56 56 52 56 56 51 42 43 43 43 41 40 41 42 40 39 38 38 39 40 40 43 45 48 48 50 53 55 56 57 56
52 54 58 52 54 54 55 57 53 53 51 55 48 50 48 45 43 44 46 46 45 44 43 43 46 44 45 46 46 47 49 52 52 56 59 62 61 62
54 51 55 55 57 51 50 52 49 49 50 55 56 51 48 45 49 49 49 50 49 49 50 49 49 49 49 50 52 52 53 56 55 60 64 65 66 65
46 48 49 53 49 54 53 53 51 51 50 50 51 52 52 51 52 56 58 54 55 52 52 51 52 52 53 55 58 60 60 60 60 63 65 66 67 68
48 45 45 47 48 52 53 54 55 55 53 51 52 54 57 58 61 56 60 59 60 56 55 56 56 57 59 62 66 63 62 63 62 65 66 66 67 69
58 57 55 51 52 52 52 50 54 57 54 56 56 61 61 55 51 56 59 63 73 62 66 66 62 67 66 65 65 65 65 64 65 65 67 67 69 72
61 63 65 61 55 54 51 51 57 56 55 57 63 63 61 55 59 64 65 68 71 66 65 79 68 73 69 67 66 65 66 69 69 71 72 73 72 72
61 62 63 64 66 68 65 69 66 63 62 63 63 64 67 66 70 73 75 77 77 74 71 87 76 82 77 74 72 71 71 77 78 74 72 73 74 74
60 58 61 62 62 64 67 71 74 72 65 67 67 69 66 66 68 72 80 84 90 87 77 83 82 85 81 80 75 77 80 79 77 75 72 75 76 76
65 65 67 62 64 65 66 67 73 73 71 73 77 74 67 66 69 70 74 84 87 89 77 85 86 82 89 75 74 73 74 75 75 76 77 74 74 75
68 68 66 68 73 69 69 68 71 68 70 72 75 76 77 78 81 79 75 79 85 90 74 75 81 80 82 86 77 72 71 72 72 71 71 71 72 80
77 73 72 70 71 75 77 75 68 71 71 74 76 78 79 78 77 77 78 79 76 83 77 79 86 83 85 90 92 78 76 71 70 74 74 77 83 88
75 76 77 77 77 80 81 80 79 79 79 75 75 76 74 72 71 71 73 75 77 78 77 76 79 80 82 87 87 82 81 78 77 81 81 82 83 83
80 78 78 77 74 73 78 78 76 73 72 73 78 75 69 68 70 73 77 78 82 83 77 76 78 80 84 84 85 87 81 83 75 76 79 81 79 79
72 76 81 84 88 85 79 75 73 74 77 73 70 71 70 70 71 69 70 72 78 78 74 69 71 75 79 82 86 82 82 81 78 81 82 85 81 78
75 76 77 75 77 80 85 87 82 83 80 79 79 80 82 81 80 78 76 77 84 83 81 77 75 77 78 79 75 84 85 86 82 82 82 87 85 80
69 63 77 84 81 80 78 77 78 76 72 74 79 80 79 78 80 80 80 82 86 85 83 80 80 85 95 103 89 81 89 86 81 77 74 81 93 94
68 70 73 67 70 76 81 83 81 79 76 75 72 68 67 69 72 74 75 77 79 80 82 77 80 82 88 95 93 82 72 77 79 88 89 88 90 91
69 69 66 63 62 61 61 60 60 65 71 68 68 70 71 71 72 72 74 77 79 80 85 84 81 77 75 74 86 86 79 73 75 80 82 92 98 102
69 67 67 66 64 63 63 61 60 61 61 62 63 64 66 69 74 77 79 83 85 87 89 84 77 75 78 82 88 85 83 78 77 82 85 89 98 111
68 68 67 66 66 64 65 65 67 68 67 67 68 69 70 74 73 74 75 76 78 80 80 81 76 72 75 76 82 85 87 90 90 95 97 89 94 97
Wind_Direction
252 250 256 261 260 255 247 236 245 255 253 256 259 251 245 246 254 259 265 271 277 282 289 293 298 302 306 309 312 312 312 311 310 310 310 310 310 310
262 259 258 259 259 253 250 251 255 257 257 258 258 248 242 249 252 256 262 268 275 280 284 288 292 296 301 304 306 307 309 309 309 308 307 306 305 306
259 261 255 263 263 255 253 253 255 258 257 261 256 248 245 244 251 258 263 269 275 277 281 285 289 293 297 300 301 303 303 304 304 304 304 302 302 302
260 258 258 258 259 260 255 257 255 260 256 251 252 247 249 247 251 257 263 270 273 277 280 282 285 290 293 296 299 300 302 301 302 301 302 301 302 301
261 262 259 257 257 255 253 256 258 259 257 254 255 251 251 249 254 260 263 269 273 276 278 281 284 288 291 293 294 298 299 299 300 299 299 299 299 300
274 269 264 259 255 250 257 257 256 257 257 256 252 250 249 253 255 258 262 267 270 275 278 281 284 288 290 291 292 295 297 297 297 297 297 297 298 298
275 274 271 270 264 260 259 257 254 256 255 253 252 251 252 254 255 260 262 267 270 274 280 282 284 286 289 290 291 293 295 295 296 296 296 296 297 296
273 272 272 269 268 268 266 261 258 254 253 255 255 252 254 254 256 261 264 268 271 276 278 281 282 284 287 289 291 292 292 293 294 295 294 295 296 296
274 271 269 269 269 269 268 264 261 262 261 262 258 258 257 261 262 263 266 270 274 280 279 280 283 283 286 288 290 290 290 291 292 294 293 292 293 294
276 273 271 269 266 265 264 263 264 266 265 266 264 265 268 269 267 269 270 273 276 277 279 280 283 283 286 287 287 287 288 290 292 292 292 291 291 292
280 278 273 271 269 267 264 264 264 265 269 268 267 267 268 268 269 271 270 272 273 274 278 280 282 284 286 286 286 286 287 288 289 290 290 290 290 291
279 277 275 273 271 270 268 265 266 266 267 268 269 270 270 269 268 270 271 271 274 277 278 279 282 285 287 288 287 288 288 288 288 289 289 288 289 292
281 278 277 275 273 270 269 266 267 269 268 269 270 270 270 270 271 272 274 273 274 276 280 280 283 283 283 287 290 290 289 290 289 288 288 288 288 291
279 279 277 277 275 273 272 273 272 270 269 269 269 269 270 271 273 273 274 275 276 277 281 279 281 281 282 284 286 288 287 287 287 287 288 288 289 291
281 278 277 276 275 273 272 272 272 272 272 273 271 271 272 274 275 275 276 277 278 279 280 279 279 281 281 283 285 286 287 287 287 287 288 288 288 290
279 279 278 278 277 278 274 272 272 273 274 273 272 274 276 274 275 276 275 277 278 279 280 279 279 280 280 281 283 284 286 286 289 288 289 289 290 291
281 279 276 273 272 272 273 274 273 273 272 274 275 274 275 276 277 279 280 282 280 279 282 284 283 281 281 282 282 284 286 287 287 289 289 288 289 290
277 275 275 274 273 272 271 270 271 271 272 272 273 273 274 275 276 277 278 278 278 280 282 283 285 286 286 285 283 285 286 286 287 289 289 288 288 291
284 286 275 272 272 272 272 272 272 273 274 273 272 273 273 274 275 276 276 277 278 279 281 283 283 282 282 282 286 286 286 286 286 287 288 289 291 293
291 289 283 282 280 277 273 273 273 273 273 272 271 271 272 275 275 276 278 278 280 281 282 284 283 283 283 284 285 287 291 290 290 290 291 293 294 296
292 289 289 286 281 279 281 280 281 277 273 270 270 271 274 275 275 277 278 280 281 281 281 283 285 288 288 289 286 287 289 291 293 293 296 295 296 296
293 291 288 284 282 281 282 281 281 281 279 277 274 274 275 277 277 279 280 280 281 282 283 285 287 287 286 285 286 288 291 294 296 297 296 296 296 295
295 292 290 288 283 281 280 280 280 279 280 279 278 278 278 278 280 281 282 283 284 284 285 286 287 286 286 286 288 290 292 294 296 296 296 299 298 298